This is the latest recevied weather packets stored in our database for station/object KC1DMA. If no packets are shown the sender has not sent any weather packets the latest 10 day(s).
| Time | Temp. | Humidity | Pressure | Rain* | Wind** | Luminosity | Snow |
|---|---|---|---|---|---|---|---|
| 1777906401 | 17.78° C | 37% | 1013.5 hPa | - | - | 735 W/m² | - |
| 1777906098 | 17.22° C | 36% | 1013.7 hPa | - | - | 721 W/m² | - |
| 1777905795 | 16.67° C | 37% | 1013.2 hPa | - | - | 714 W/m² | - |
| 1777905492 | 17.22° C | 36% | 1013.5 hPa | - | - | 699 W/m² | - |
| 1777905189 | 17.22° C | 37% | 1013.6 hPa | - | - | 690 W/m² | - |
| 1777904887 | 17.22° C | 36% | 1013.7 hPa | - | - | 676 W/m² | - |
| 1777904583 | 17.22° C | 38% | 1013.7 hPa | - | - | 666 W/m² | - |
| 1777904280 | 16.67° C | 38% | 1013.7 hPa | - | - | 653 W/m² | - |
| 1777903978 | 16.67° C | 39% | 1013.9 hPa | - | - | 626 W/m² | - |
| 1777903674 | 16.67° C | 37% | 1013.9 hPa | - | - | 635 W/m² | - |
| 1777903370 | 16.11° C | 38% | 1014.1 hPa | - | - | 616 W/m² | - |
| 1777903067 | 16.67° C | 41% | 1013.7 hPa | - | - | 605 W/m² | - |
| 1777902763 | 16.67° C | 39% | 1014.2 hPa | - | - | 592 W/m² | - |
| 1777902461 | 16.11° C | 41% | 1014.2 hPa | - | - | 574 W/m² | - |
| 1777902157 | 15.56° C | 41% | 1014 hPa | - | - | 550 W/m² | - |
| 1777901856 | 15.56° C | 41% | 1014.1 hPa | - | - | 550 W/m² | - |
| 1777901553 | 15.56° C | 41% | 1014.2 hPa | - | - | 542 W/m² | - |
| 1777901250 | 15° C | 43% | 1014.3 hPa | - | - | 525 W/m² | - |
| 1777900947 | 15° C | 44% | 1014.2 hPa | - | - | 507 W/m² | - |
| 1777900645 | 15.56° C | 41% | 1014.2 hPa | - | - | 495 W/m² | - |
| 1777900342 | 15° C | 43% | 1014.4 hPa | - | - | 482 W/m² | - |
| 1777900039 | 14.44° C | 47% | 1014.4 hPa | - | - | 466 W/m² | - |
| 1777899734 | 13.89° C | 46% | 1014.5 hPa | - | - | 450 W/m² | - |
| 1777899432 | 14.44° C | 47% | 1014.6 hPa | - | - | 433 W/m² | - |
| 1777899130 | 13.89° C | 50% | 1014.5 hPa | - | - | 417 W/m² | - |
* Rain since midnight (hover to see other rain measurements)
** Current wind speed in m/s (hover to see current wind gust speed)